Date String (YYYY-MM-DD hh:mm:ss) UTC,Instrument flags,Ambient pressure (hPa),Sample flow (lpm),Bypass flow (lpm),Sample temperature (°C),Ambient temperature (°C),ASC tube jacket temperature (°C),LED temperature (°C),Box temperature (°C),Sample RH (%),Span deviation,Mass concentration (μg/m³),Mass concentration (μg/m³),Mass concentration (μg/m³)
DateTimeUTC,F1_M11,P_M11,Q1_M11,Q2_M11,T1_M11,T2_M11,T3_M11,T4_M11,T5_M11,U1_M11,ZSPAN_M11,X0_M11,X2_M11,X1_M11
2022-10-10 02:00:00,,0830.8,5.01,0.00,29.7,28.5,00.0,38.5,31.6,13.9,-000.1,0011.58,0005.96,0005.34
2022-10-10 02:01:00,,0830.8,4.99,0.00,29.8,28.5,00.0,38.5,31.6,13.9,0000.0,0011.56,0005.97,0005.34
2022-10-10 02:02:00,,0830.8,5.01,0.00,29.8,28.5,00.0,38.5,31.7,13.9,0000.0,0012.12,0005.94,0005.34
2022-10-10 02:03:00,,0830.8,4.99,0.00,29.8,28.5,00.0,38.5,31.7,13.8,0000.0,0012.37,0005.93,0005.32
2022-10-10 02:04:00,,0830.8,5.01,0.00,29.8,28.5,00.0,38.5,31.7,13.8,0000.0,0012.16,0005.87,0005.31
2022-10-10 02:05:00,,0830.7,4.99,0.00,29.8,28.5,00.0,38.5,31.7,13.8,0000.0,0012.20,0005.87,0005.30
2022-10-10 02:06:00,,0830.8,5.01,0.00,29.8,28.6,00.0,38.5,31.7,13.8,0000.0,0011.85,0005.86,0005.30
2022-10-10 02:07:00,,0830.8,4.99,0.00,29.8,28.6,00.0,38.5,31.8,13.8,0000.0,0011.72,0005.87,0005.30
2022-10-10 02:08:00,,0830.8,5.02,0.00,29.9,28.6,00.0,38.6,31.8,13.7,0000.0,0011.71,0005.87,0005.30
2022-10-10 02:09:00,,0830.8,4.99,0.00,29.9,28.6,00.0,38.6,31.7,13.6,0000.0,0012.13,0005.85,0005.29
2022-10-10 02:10:00,,0830.8,5.01,0.00,29.9,28.6,00.0,38.6,31.8,13.6,0000.0,0012.24,0005.86,0005.29
2022-10-10 02:11:00,,0830.8,4.99,0.00,29.9,28.6,00.0,38.6,31.8,13.6,0000.0,0012.15,0005.84,0005.28
2022-10-10 02:12:00,,0830.7,5.01,0.00,29.9,28.6,00.0,38.6,31.8,13.6,0000.0,0012.28,0005.83,0005.29
2022-10-10 02:13:00,,0830.7,4.99,0.00,29.9,28.6,00.0,38.6,31.8,13.5,0000.0,0011.74,0005.85,0005.29
2022-10-10 02:14:00,,0830.8,4.99,0.00,29.9,28.6,00.0,38.6,31.8,13.5,0000.0,0011.27,0005.81,0005.29
2022-10-10 02:15:00,,0830.7,5.01,0.00,29.9,28.6,00.0,38.6,31.8,13.5,0000.0,0011.30,0005.81,0005.28
2022-10-10 02:16:00,,0830.8,4.99,0.00,29.9,28.6,00.0,38.7,31.8,13.5,0000.0,0011.75,0005.81,0005.28
2022-10-10 02:17:00,,0830.8,5.01,0.00,30.0,28.7,00.0,38.7,31.8,13.5,0000.0,0012.33,0005.80,0005.27
2022-10-10 02:18:00,,0830.7,4.99,0.00,30.0,28.7,00.0,38.7,31.8,13.5,0000.0,0011.64,0005.77,0005.27
2022-10-10 02:19:00,,0830.8,5.01,0.00,30.0,28.7,00.0,38.7,31.8,13.5,0000.0,0011.34,0005.79,0005.28
2022-10-10 02:20:00,,0830.7,4.99,0.00,30.0,28.7,00.0,38.7,31.9,13.4,0000.0,0011.30,0005.84,0005.28
2022-10-10 02:21:00,,0830.7,5.01,0.00,30.0,28.7,00.0,38.7,31.8,13.4,0000.0,0011.82,0005.85,0005.28
2022-10-10 02:22:00,,0830.7,4.99,0.00,30.0,28.7,00.0,38.7,31.9,13.4,0000.0,0012.40,0005.85,0005.29
2022-10-10 02:23:00,,0830.8,5.01,0.00,30.0,28.7,00.0,38.7,31.9,13.3,0000.0,0012.13,0005.84,0005.29
2022-10-10 02:24:00,,0830.8,4.99,0.00,30.0,28.7,00.0,38.7,31.9,13.3,0000.0,0012.56,0005.84,0005.30
2022-10-10 02:25:00,,0830.8,5.01,0.00,30.0,28.7,00.0,38.8,31.9,13.3,0000.0,0012.70,0005.83,0005.30
2022-10-10 02:26:00,,0830.8,4.99,0.00,30.0,28.7,00.0,38.8,31.9,13.3,-000.1,0012.75,0005.84,0005.30
2022-10-10 02:27:00,,0830.8,5.00,0.00,30.0,28.7,00.0,38.8,31.9,13.3,0000.0,0013.07,0005.81,0005.30
2022-10-10 02:28:00,,0830.8,5.01,0.00,30.0,28.7,00.0,38.8,31.9,13.3,0000.1,0012.59,0005.79,0005.31
2022-10-10 02:29:00,,0830.8,5.00,0.00,30.0,28.7,00.0,38.8,31.9,13.3,0000.6,0012.47,0005.80,0005.31
2022-10-10 02:30:00,,0830.8,5.01,0.00,30.0,28.7,00.0,38.8,31.9,13.2,0000.1,0012.44,0005.77,0005.29
2022-10-10 02:31:00,,0830.8,5.00,0.00,30.1,28.7,00.0,38.8,31.9,13.2,0000.1,0011.95,0005.74,0005.27
2022-10-10 02:32:00,,0830.8,4.99,0.00,30.1,28.7,00.0,38.8,31.9,13.2,0000.6,0011.44,0005.69,0005.27
2022-10-10 02:33:00,,0830.8,5.01,0.00,30.1,28.7,00.0,38.8,31.9,13.1,0000.1,0010.63,0005.71,0005.26
2022-10-10 02:34:00,,0830.8,4.99,0.00,30.1,28.7,00.0,38.8,31.9,13.2,0000.3,0010.81,0005.72,0005.24
2022-10-10 02:35:00,,0830.8,5.01,0.00,30.1,28.7,00.0,38.8,31.9,13.2,0000.0,0010.62,0005.70,0005.22
2022-10-10 02:36:00,,0830.8,4.99,0.00,30.1,28.8,00.0,38.8,32.0,13.1,0000.0,0010.61,0005.71,0005.21
2022-10-10 02:37:00,,0830.8,5.01,0.00,30.1,28.7,00.0,38.9,31.9,13.2,0000.0,0010.77,0005.72,0005.19
2022-10-10 02:38:00,,0830.8,4.99,0.00,30.1,28.7,00.0,38.9,31.9,13.1,0000.0,0010.61,0005.72,0005.18
2022-10-10 02:39:00,,0830.7,5.00,0.00,30.1,28.8,00.0,38.9,32.0,13.1,0000.0,0011.22,0005.73,0005.17
2022-10-10 02:40:00,,0830.7,4.99,0.00,30.1,28.8,00.0,38.9,32.0,13.1,0000.0,0012.57,0005.75,0005.16
2022-10-10 02:41:00,,0830.8,5.00,0.00,30.1,28.7,00.0,38.9,32.0,13.0,0000.0,0012.89,0005.78,0005.16
2022-10-10 02:42:00,,0830.7,5.00,0.00,30.1,28.7,00.0,38.9,31.9,13.0,0000.0,0012.84,0005.82,0005.17
2022-10-10 02:43:00,,0830.7,4.99,0.00,30.1,28.7,00.0,38.9,32.0,13.0,0000.0,0012.91,0005.84,0005.17
2022-10-10 02:44:00,,0830.8,5.01,0.00,30.1,28.7,00.0,38.9,32.0,13.0,0000.0,0012.85,0005.82,0005.17
2022-10-10 02:45:00,,0830.8,4.99,0.00,30.1,28.8,00.0,38.9,32.0,13.0,0000.0,0012.70,0005.81,0005.18
2022-10-10 02:46:00,,0830.8,5.01,0.00,30.1,28.8,00.0,38.9,32.0,13.0,0000.0,0012.51,0005.82,0005.19
2022-10-10 02:47:00,,0830.8,4.99,0.00,30.2,28.8,00.0,38.9,32.0,13.0,0000.0,0012.16,0005.82,0005.19
2022-10-10 02:48:00,,0830.8,5.00,0.00,30.2,28.8,00.0,38.9,32.0,13.0,0000.0,0012.08,0005.82,0005.19
2022-10-10 02:49:00,,0830.8,5.00,0.00,30.2,28.7,00.0,38.9,32.0,13.0,0000.0,0011.71,0005.82,0005.19
2022-10-10 02:50:00,,0830.8,5.01,0.00,30.2,28.8,00.0,38.9,32.0,13.0,0000.0,0011.33,0005.84,0005.20
2022-10-10 02:51:00,,0830.8,5.00,0.00,30.2,28.8,00.0,38.9,32.0,13.0,0000.0,0010.29,0005.81,0005.20
2022-10-10 02:52:00,,0830.7,5.00,0.00,30.2,28.8,00.0,38.9,32.0,13.0,0000.0,0010.14,0005.81,0005.20
2022-10-10 02:53:00,,0830.8,5.01,0.00,30.2,28.5,00.0,38.9,32.0,13.0,0000.0,0010.03,0005.77,0005.19
2022-10-10 02:54:00,,0830.8,4.99,0.00,30.1,26.9,00.0,38.9,31.8,12.9,0000.0,0010.00,0005.76,0005.20
2022-10-10 02:55:00,,0830.7,5.01,0.00,30.0,26.0,00.0,38.8,31.6,13.0,0000.0,0009.99,0005.74,0005.20
2022-10-10 02:56:00,,0830.7,5.01,0.00,29.9,26.1,00.0,38.8,31.4,13.0,0000.0,0010.40,0005.74,0005.20
2022-10-10 02:57:00,,0830.8,5.00,0.00,29.8,26.4,00.0,38.7,31.3,13.2,0000.0,0010.50,0005.75,0005.20
2022-10-10 02:58:00,,0830.8,4.99,0.00,29.8,26.8,00.0,38.7,31.3,13.2,0000.0,0010.51,0005.74,0005.20
2022-10-10 02:59:00,,0830.8,5.00,0.00,29.7,27.1,00.0,38.6,31.3,13.3,0000.0,0010.54,0005.73,0005.20
